Weather History for KBAN - March, 2014

Change the Weather History Date:

Sunday, March 9, 2014

  Actual Average (KTVL) Record (KTVL)
Temperature  
Mean Temperature 48 °F 34 °F  
Max Temperature 59 °F 48 °F 63 °F (1988)
Min Temperature 37 °F 22 °F 8 °F (1980)
Degree Days  
Heating Degree Days 17 31  
Month to date heating degree days 282  
Since 1 July heating degree days 5519  
Cooling Degree Days 0 0  
Month to date cooling degree days 0  
Year to date cooling degree days 0  
Moisture  
Dew Point 8 °F    
Average Humidity 22    
Maximum Humidity 45    
Minimum Humidity 10    
Precipitation  
Precipitation 0.00 in - 2.20 in (1943)
Month to date precipitation  
Year to date precipitation  
Sea Level Pressure  
Sea Level Pressure 30.11 in    
Wind  
Wind Speed 7 mph (WSW)    
Max Wind Speed 16 mph    
Max Gust Speed 24 mph    
Visibility 10 miles    
Events      
T = Trace of Precipitation, MM = Missing Value Source: NWS Daily Summary

Daily Weather History Graph

Daily Weather History Graph

Search for Another Location

Airport or City:

Trip Planner

Search our weather history database for the weather conditions in past years. The results will help you decide how hot, cold, wet, or windy it might be!

Date:

Astronomy

Mar. 09, 2014 Rise Set
Actual Time 7:18 AM PDT 6:59 PM PDT
Civil Twilight 6:51 AM PDT 7:25 PM PDT
Nautical Twilight 6:21 AM PDT 7:56 PM PDT
Astronomical Twilight 5:50 AM PDT 8:27 PM PDT
Moon 12:59 PM PDT (3/9) 3:44 AM PDT (3/9)
Length of Visible Light 12h 34m
Length of Day
11h 41m
First Quarter, 62% of the Moon is Illuminated
Mar 9
First Quarter
Mar 16
Full
Mar 23
Last Quarter
Mar 30
New
Apr 7
First Quarter

Hourly Weather History & Observations

Time (PDT) Temp. Windchill Dew Point Humidity Pressure Visibility Wind Dir Wind Speed Gust Speed Precip Events Conditions
12:52 AM 44.1 °F 41.5 °F 10.0 °F 25% 30.12 in 10.0 mi Variable 4.6 mph - N/A   Clear
1:52 AM 46.0 °F 44.8 °F 10.0 °F 23% 30.10 in 10.0 mi North 3.5 mph - N/A   Clear
3:52 AM 44.1 °F 41.5 °F 12.9 °F 28% 30.08 in 10.0 mi North 4.6 mph - N/A   Clear
4:52 AM 46.0 °F - 10.0 °F 23% 30.08 in 10.0 mi Calm Calm - N/A   Mostly Cloudy
5:52 AM 45.0 °F 42.6 °F 6.1 °F 20% 30.12 in 10.0 mi WNW 4.6 mph - N/A   Partly Cloudy
6:52 AM 46.0 °F 41.4 °F 3.9 °F 18% 30.19 in 10.0 mi West 9.2 mph - N/A   Mostly Cloudy
7:52 AM 46.9 °F - 3.9 °F 17% 30.18 in 10.0 mi WSW 5.8 mph - N/A   Overcast
8:52 AM 46.9 °F - 10.0 °F 22% 30.20 in 10.0 mi West 4.6 mph - N/A   Overcast
9:52 AM 53.1 °F - 1.0 °F 12% 30.13 in 10.0 mi WSW 10.4 mph - N/A   Overcast
10:52 AM 54.0 °F - 8.1 °F 16% 30.12 in 10.0 mi WSW 10.4 mph 18.4 mph N/A   Overcast
11:52 AM 55.9 °F - 1.0 °F 11% 30.18 in 10.0 mi SW 16.1 mph 24.2 mph N/A   Mostly Cloudy
12:52 PM 55.9 °F - 1.0 °F 11% 30.17 in 10.0 mi SW 12.7 mph - N/A   Clear
1:52 PM 59.0 °F - 1.9 °F 10% 30.06 in 10.0 mi SW 10.4 mph 18.4 mph N/A   Clear
2:52 PM 59.0 °F - 3.9 °F 11% 30.03 in 10.0 mi SW 12.7 mph 21.9 mph N/A   Clear
3:52 PM 57.0 °F - 3.0 °F 11% 30.05 in 10.0 mi SW 12.7 mph 20.7 mph N/A   Clear
4:52 PM 55.0 °F - 3.9 °F 13% 30.04 in 10.0 mi SW 12.7 mph 20.7 mph N/A   Clear
5:52 PM 53.1 °F - 7.0 °F 16% 30.10 in 10.0 mi SW 10.4 mph - N/A   Clear
6:52 PM 46.9 °F - 12.0 °F 24% 30.11 in 10.0 mi WSW 5.8 mph - N/A   Clear
7:52 PM 45.0 °F 42.6 °F 19.9 °F 37% 30.13 in 10.0 mi WSW 4.6 mph - N/A   Clear
8:52 PM 41.0 °F - 21.0 °F 45% 30.15 in 10.0 mi Calm Calm - N/A   Clear
9:52 PM 45.0 °F 39.7 °F 18.0 °F 34% 30.10 in - SE 10.4 mph 16.1 mph N/A   Partly Cloudy
10:52 PM 37.9 °F 34.4 °F 16.0 °F 41% 30.11 in - Variable 4.6 mph - N/A   Clear
11:52 PM 39.0 °F 36.8 °F 10.0 °F 30% 30.06 in - NE 3.5 mph - N/A   Clear
12:52 AM 41.0 °F 38.0 °F 6.1 °F 24% 30.04 in - NNE 4.6 mph - N/A   Clear